Regional Weather Roundup
Issued by NWS Sioux Falls, SD

Home | Current Version | Previous Version | Graphics & Text | Print | Product List | Glossary On
Versions: 1 2 3 4 5 6 7 8 9 10 11 12 13 14 15 16 17 18 19 20 21 22 23 24 25 26 27 28 29 30 31 32 33 34 35 36 37 38 39 40 41 42 43 44 45 46 47 48 49 50
000
ASUS43 KFSD 201110
RWRFSD

WEATHER ROUNDUP FOR SE SOUTH DAKOTA/SW MINNESOTA/NW IOWA
NATIONAL WEATHER SERVICE SIOUX FALLS SD
600 AM CDT WED AUG 20 2014

NOTE: "FAIR" INDICATES FEW OR NO CLOUDS BELOW 12,000 FEET WITH NO
SIGNIFICANT WEATHER AND OR OBSTRUCTIONS TO VISIBILITY.


SDZ038>040-050-052>070-201200-
SOUTHEAST SOUTH DAKOTA

CITY           SKY/WX    TMP DP  RH WIND       PRES   REMARKS
CHAMBERLAIN    PTCLDY    65  63  91 E10       29.71F
HURON          CLOUDY    68  64  87 E15       29.72F
MADISON        PTSUNNY   64  64 100 S10       29.84R
MITCHELL       CLOUDY    68  66  93 N12       29.77F
SIOUX FALLS    LGT RAIN  70  64  81 E7        29.80F
WINNER         FAIR      69  64  84 SE13      29.74R
YANKTON        CLOUDY    68  66  94 SE7       29.76R
$$

MNZ071-072-080-081-089-090-097-098-201200-
SOUTHWEST MINNESOTA

CITY           SKY/WX    TMP DP  RH WIND       PRES   REMARKS
FAIRMONT       PTCLDY    61  39  44 SW3       29.83R
JACKSON        MOCLDY    63  59  88 CALM      29.84R
LUVERNE        CLOUDY    63  61  94 SW7       29.86R
MARSHALL       CLOUDY    64  59  82 CALM      29.79R
MONTEVIDEO     CLOUDY    63  63 100 CALM      29.80S
PIPESTONE      CLOUDY    64  63  94 CALM      29.83R
REDWOOD FALLS  MOCLDY    63  63 100 SE3       29.80S FOG
TRACY          CLOUDY    67  63  86 CALM      29.81R
WINDOM         MOCLDY    63  61  94 CALM      29.83R
WORTHINGTON    CLOUDY    63   7  11 CALM      29.84R
$$

IAZ001>003-012>014-020>022-031-032-NEZ013-014-SDZ071-201200-
NORTHWEST IOWA

CITY           SKY/WX    TMP DP  RH WIND       PRES   REMARKS
CHEROKEE       CLOUDY    67  66  97 CALM      29.82R
DENISON        LGT RAIN  70  68  94 E8G16     29.80R
ESTHERVILLE    MOCLDY    60  59  96 CALM      29.83R
LE MARS        CLOUDY    70  66  88 S6        29.81S
ORANGE CITY    CLOUDY    70  64  83 N13       29.86R
SHELDON        CLOUDY    64  63  94 SW8       29.86R
SIOUX CITY     LGT RAIN  70  64  81 E10       29.74F
SPENCER        CLOUDY    63  61  93 CALM      29.84R
STORM LAKE     CLOUDY    66  66 100 SE8       29.83F
$$

ABBREVIATIONS USED IN REMARKS
   TC - TEMPERATURE IN CELSIUS
  WCI - WIND CHILL INDEX
   HX - HEAT INDEX
  VSB - VISIBILITY



USA.gov is the U.S. government's official web portal to all federal, state and local government web resources and services.